Lapse_Rate
7.0 6.4 6.6 7.0 7.0 7.3 7.4 7.3 6.6 6.7 6.9 6.8 6.9 6.6 6.9 6.7 7.0 6.6 6.5 6.6 6.7 6.8 6.7 6.7 6.7 6.7 6.8 6.5 6.1 7.0 7.1 7.9 7.8 7.9 7.2 7.3 6.8 6.4 6.5 6.3 5.9 6.5 6.5 6.7 6.6 6.3 6.3
7.7 7.7 7.1 6.6 6.9 6.9 7.3 7.4 7.3 6.7 6.9 6.9 6.6 6.6 6.5 6.6 6.8 6.8 6.7 6.7 6.7 6.7 6.5 6.4 7.0 6.9 6.3 6.5 7.3 7.9 7.6 6.8 7.5 6.9 6.3 6.6 6.7 6.7 6.1 6.5 6.4 6.1 6.4 6.5 6.7 6.6 6.4
6.4 7.0 7.5 7.3 6.5 6.6 6.9 7.3 7.4 7.1 6.6 6.8 6.8 6.5 6.3 6.2 6.5 6.9 6.8 6.9 6.9 6.9 6.8 6.7 7.0 7.5 6.8 6.3 7.7 7.2 8.0 7.6 7.9 7.8 7.5 7.5 7.5 6.5 6.7 6.5 5.9 6.2 6.5 6.5 6.4 6.4 6.5
7.2 7.0 6.2 7.1 7.1 6.6 6.6 7.1 7.1 7.2 6.9 6.6 6.7 6.5 6.4 6.2 6.7 6.9 7.1 7.1 7.2 7.1 7.1 7.1 7.0 7.2 6.8 8.5 7.3 7.0 7.1 7.4 8.1 8.0 8.0 7.6 7.2 7.0 7.0 6.9 6.2 6.5 6.5 6.5 6.5 6.5 6.4
9.1 8.3 7.3 6.4 6.4 6.9 6.6 6.8 7.0 7.0 7.0 6.6 6.3 6.3 6.5 6.5 6.8 7.0 6.7 6.7 6.9 7.0 7.3 7.5 6.7 6.3 6.3 8.5 7.1 6.5 7.3 7.1 8.0 7.9 7.5 8.9 7.7 6.4 6.3 6.5 6.5 6.5 6.5 6.5 6.5 6.4 6.5
8.7 9.1 8.8 7.3 7.0 6.2 7.0 6.7 7.1 7.2 6.9 7.0 6.3 6.0 6.2 6.6 6.8 6.8 6.6 6.6 6.6 6.8 7.3 8.4 8.1 7.3 6.9 6.9 7.8 7.5 7.5 8.0 7.7 7.5 7.0 6.7 5.8 6.5 6.5 6.5 6.5 6.5 6.5 6.5 6.5 6.5 6.5
9.2 9.2 8.8 9.1 7.6 7.0 6.5 6.7 6.9 7.2 6.9 6.9 6.6 6.5 5.8 6.5 6.7 6.5 6.1 5.4 6.1 6.2 6.8 6.5 6.8 7.0 7.5 7.5 7.9 7.8 7.8 7.7 7.4 7.2 6.5 6.2 6.5 6.5 6.5 6.5 6.5 6.5 6.5 6.5 6.5 6.5 6.5
8.9 9.2 9.4 9.1 8.4 7.6 6.9 6.5 6.8 7.2 7.1 7.0 6.7 6.5 6.6 6.5 6.7 6.6 5.5 6.0 6.5 6.1 6.5 6.7 6.7 7.6 7.6 8.2 7.2 7.4 8.0 6.6 6.5 6.5 6.5 6.5 6.5 6.5 6.5 6.5 6.5 6.5 6.5 6.5 6.5 6.5 6.5
9.2 9.1 9.1 9.3 9.0 7.8 7.3 5.9 6.9 7.1 7.3 7.0 6.8 6.5 6.4 6.8 6.9 6.1 5.5 5.6 5.9 7.0 6.5 6.9 6.3 7.2 7.4 7.7 7.1 7.0 7.4 6.7 6.5 6.5 6.5 6.5 6.5 6.5 6.5 6.5 6.5 6.5 6.5 6.5 6.5 6.5 6.5
9.6 9.2 9.1 9.1 9.3 8.6 7.8 6.3 6.3 6.7 7.3 7.4 7.2 6.5 6.3 7.1 6.5 5.4 6.1 6.2 5.7 6.5 6.5 6.5 6.7 7.2 7.8 7.9 6.7 8.1 8.1 7.4 6.5 6.5 6.5 6.5 6.5 6.5 6.5 6.5 6.5 6.5 6.5 6.5 6.5 6.5 6.5
9.5 9.2 9.3 9.2 8.9 8.8 7.5 7.8 5.6 6.7 6.8 7.6 7.2 6.6 5.9 6.7 5.5 6.1 5.1 4.7 5.9 6.1 6.5 6.5 6.6 8.1 7.6 6.9 6.8 6.2 7.5 7.4 6.5 6.5 6.5 6.5 6.5 6.5 6.5 6.5 6.5 6.5 6.5 6.5 6.5 6.5 6.5
9.2 9.2 9.1 8.9 8.8 8.6 8.1 7.0 5.9 6.8 6.4 7.5 7.4 6.5 5.5 6.9 6.5 5.3 4.9 5.6 6.1 6.5 6.5 6.5 6.6 6.5 6.5 6.8 6.8 6.9 7.1 7.4 7.3 6.5 6.5 6.5 6.3 6.5 6.5 6.5 6.5 6.5 6.5 6.5 6.5 6.5 6.5
9.2 9.3 8.7 8.8 8.4 8.0 7.9 7.0 6.1 5.9 6.2 7.3 6.4 6.5 5.5 6.9 6.7 5.5 5.6 5.4 6.5 6.5 6.5 6.5 6.5 6.5 6.5 6.5 6.5 6.5 6.5 6.5 6.5 6.5 6.5 6.5 6.5 6.5 6.5 6.5 6.5 6.5 6.5 6.5 6.5 6.5 6.5
9.6 9.3 8.8 8.8 8.3 7.9 7.8 7.4 6.7 6.5 6.1 6.7 5.9 5.8 5.9 6.6 5.7 5.9 5.8 6.5 6.5 6.5 6.5 6.5 6.5 6.5 6.5 6.5 6.5 6.5 6.5 6.5 6.5 6.5 6.5 6.5 6.5 6.5 6.5 6.5 6.5 6.5 6.5 6.5 6.5 6.5 6.5
9.4 9.7 9.2 8.2 8.5 7.9 7.6 7.3 7.2 6.0 5.7 6.4 5.9 5.7 5.3 5.3 5.7 6.6 6.5 6.5 6.5 6.5 6.5 6.5 6.5 6.5 6.5 6.5 6.5 6.5 6.5 6.5 6.5 6.5 6.5 6.5 6.5 6.5 6.5 6.5 6.5 6.5 6.5 6.5 6.5 6.5 6.5
9.4 9.6 9.5 8.9 8.6 7.9 7.5 6.5 6.9 5.1 5.6 6.4 5.6 5.6 5.6 5.3 5.9 6.4 6.5 6.5 6.5 6.5 6.5 6.5 6.5 6.5 6.5 6.5 6.5 6.5 6.5 6.5 6.5 6.5 6.5 6.5 6.5 6.5 6.5 6.5 6.5 6.5 6.5 6.5 6.5 6.5 6.5
9.5 9.5 9.6 9.1 8.8 7.9 7.5 7.3 7.2 5.6 6.3 5.6 5.0 5.9 5.7 5.5 5.6 6.5 6.5 6.5 6.5 6.6 6.5 6.5 6.5 6.5 6.5 6.5 6.5 6.5 6.5 6.5 6.5 6.5 6.5 6.5 6.5 6.5 6.5 6.5 6.5 6.5 6.5 6.5 6.5 6.5 6.5
9.5 9.5 9.6 9.4 8.9 7.8 7.4 7.4 7.2 6.3 6.1 5.3 5.2 6.5 5.6 5.4 6.5 6.5 6.5 6.5 6.7 6.5 6.5 6.5 6.5 6.5 6.5 6.5 6.5 6.5 6.5 6.5 5.9 6.5 6.5 6.5 6.5 6.5 6.5 6.5 6.5 6.5 6.5 6.5 6.5 6.5 6.5
9.4 9.4 9.6 9.6 8.6 7.7 7.1 7.7 6.8 7.0 5.3 4.8 6.1 6.5 5.6 6.4 6.5 6.5 6.5 6.5 6.5 6.5 6.5 6.5 6.5 6.5 6.5 6.5 6.5 6.5 6.5 6.4 6.3 6.5 6.5 6.5 6.5 6.5 6.5 6.5 6.5 6.5 6.5 6.5 6.5 6.5 6.5
9.3 9.5 9.6 9.5 8.8 7.7 7.4 7.8 7.5 6.5 5.9 5.3 5.9 6.5 6.5 6.4 6.6 6.5 6.5 6.5 6.5 6.7 6.5 6.6 6.5 6.5 6.5 6.5 6.5 6.5 6.5 6.5 6.2 6.5 6.4 6.6 6.5 6.5 6.5 6.5 6.5 6.5 6.5 6.5 6.5 6.5 6.5
9.4 9.4 9.6 9.6 9.2 7.9 7.5 7.7 7.2 6.7 5.2 5.1 5.8 6.5 6.6 6.5 6.5 6.5 6.5 6.5 6.5 6.5 6.6 6.7 6.5 6.5 6.5 6.5 6.5 6.5 6.5 6.5 6.5 6.3 6.5 6.5 6.5 6.5 6.5 6.5 6.5 6.5 6.5 6.5 6.5 6.5 6.5
9.4 9.5 9.5 9.6 9.4 9.0 7.9 8.2 7.2 6.1 5.3 5.6 6.2 6.3 6.8 6.6 6.6 6.5 6.5 6.5 6.5 6.5 6.5 6.5 6.5 6.5 6.5 6.5 6.5 6.5 6.5 6.5 6.5 6.5 6.5 6.5 6.5 6.5 6.5 6.5 6.5 6.5 6.5 6.5 6.5 6.5 6.5
9.5 9.5 9.5 9.6 9.5 9.1 7.9 8.2 7.3 6.3 5.8 5.7 5.0 4.5 6.1 6.5 6.5 6.5 6.5 6.5 6.5 6.5 6.5 6.6 6.5 6.5 6.5 6.5 6.5 6.4 5.4 5.4 6.3 6.5 6.5 6.5 6.5 6.5 6.5 6.5 6.5 6.5 6.5 6.5 6.5 6.5 6.5
9.3 9.5 9.5 9.6 9.6 9.0 8.0 8.2 7.0 6.9 5.8 5.3 5.0 5.1 6.2 6.5 6.5 6.5 6.5 6.5 6.5 6.5 6.5 6.6 6.7 6.5 6.8 6.7 6.8 6.3 5.7 6.2 6.5 6.5 6.4 6.5 6.5 6.5 6.5 6.5 6.5 6.5 6.5 6.5 6.5 6.5 6.5
9.2 9.2 9.5 9.6 9.5 9.1 8.2 8.6 7.5 7.2 6.3 5.7 4.7 5.2 6.0 6.5 6.5 6.5 6.5 6.5 6.5 6.3 6.5 6.5 6.9 7.1 5.5 5.8 6.5 6.5 6.5 6.5 6.5 6.5 6.5 6.5 6.5 6.5 6.5 6.5 6.5 6.5 6.5 6.5 6.5 6.5 6.5
9.1 9.2 9.2 9.6 9.4 8.8 8.3 8.3 7.5 7.1 5.7 5.3 4.3 4.5 5.5 6.4 6.5 6.9 6.5 6.5 6.5 6.5 6.5 6.5 6.6 6.0 6.4 6.5 6.5 6.5 6.5 6.5 6.5 6.5 6.5 6.5 6.5 6.5 6.5 6.5 6.5 6.5 6.5 6.3 6.5 6.5 6.5
8.6 9.0 9.3 9.6 9.4 9.2 8.4 8.2 7.3 6.7 6.2 5.8 4.8 5.2 5.5 6.4 6.1 6.1 6.5 6.4 6.4 6.4 6.5 6.5 6.3 6.4 6.0 6.5 6.5 6.5 6.5 6.5 6.5 6.5 6.5 6.5 6.5 6.5 6.5 6.5 6.5 6.5 6.5 5.8 6.5 6.5 6.3
9.2 8.9 9.3 9.5 9.6 9.2 8.5 8.3 7.3 6.7 5.6 5.4 4.6 4.7 6.0 6.2 6.4 6.3 6.3 5.9 6.4 6.4 6.5 6.3 6.2 6.3 6.5 6.5 6.5 6.5 6.5 6.5 6.5 6.5 6.5 6.5 6.5 6.5 6.5 6.5 6.5 6.3 6.4 6.5 6.5 5.8 5.2
9.1 9.1 9.3 9.5 9.5 9.1 8.5 8.5 7.3 6.8 5.1 5.3 4.9 4.4 4.7 5.9 6.2 5.8 6.4 6.5 6.0 5.5 6.3 5.0 6.4 6.4 6.3 6.5 6.5 6.5 6.5 6.5 6.5 6.5 6.5 6.5 6.5 6.5 6.5 6.5 6.5 5.8 6.2 5.9 5.2 5.1 5.4
Wind_Speed
19 19 20 21 20 17 14 15 14 12 13 12 9 9 8 7 7 5 5 6 6 5 4 2 1 2 1 4 7 4 7 10 7 5 6 6 5 3 4 4 5 12 13 15 14 16 19
20 19 19 20 20 21 17 15 16 14 14 13 11 10 9 7 7 6 6 6 6 4 3 1 2 2 2 7 6 13 6 6 5 6 6 7 6 6 6 8 9 7 10 15 18 18 17
27 25 21 19 20 20 20 17 16 16 14 14 12 12 10 8 8 8 7 7 6 5 3 2 2 3 5 13 5 13 4 6 6 5 3 5 6 7 1 4 6 8 16 16 20 17 18
31 29 28 23 20 21 19 20 16 17 15 16 14 13 11 11 10 7 7 5 6 5 5 3 2 2 7 3 17 12 11 5 3 5 2 6 4 5 3 4 6 3 6 10 11 14 14
29 31 30 28 27 23 21 21 20 18 18 17 16 14 13 11 9 6 3 2 6 7 7 5 2 3 8 7 6 9 6 8 3 4 5 6 2 3 4 2 5 2 8 11 14 7 6
31 31 32 32 30 28 24 21 22 21 20 20 19 17 15 12 10 9 4 2 2 2 5 6 6 2 5 5 5 4 7 6 5 3 5 6 4 4 3 4 13 10 7 12 14 6 11
31 32 33 33 33 31 29 24 23 22 20 20 21 19 17 14 12 13 7 4 3 2 5 8 8 5 5 3 3 4 6 6 5 8 7 5 5 8 14 10 10 11 11 15 17 14 11
34 31 32 35 35 33 29 27 25 24 22 19 22 19 19 16 15 16 6 3 1 2 5 17 19 17 12 5 4 9 6 7 9 14 10 8 15 9 8 10 13 13 17 23 20 20 17
34 32 34 32 34 34 29 37 25 24 25 19 20 21 21 18 15 10 6 6 7 6 4 6 15 13 13 13 12 9 11 7 7 10 15 19 4 16 8 14 17 16 17 19 23 18 21
34 36 34 33 32 34 33 32 26 22 25 20 21 23 22 18 7 5 4 8 10 5 4 4 4 5 7 8 7 15 14 9 8 14 15 13 18 16 15 16 16 18 22 20 21 15 12
35 37 35 35 34 34 34 30 34 23 25 23 22 25 24 23 6 7 5 15 10 2 4 4 5 2 3 10 2 8 20 13 16 9 9 5 5 18 20 22 15 18 10 16 20 19 14
37 36 36 34 35 35 32 26 28 21 23 21 24 28 30 9 2 7 16 11 3 3 7 5 3 4 6 10 4 5 3 9 4 13 10 8 4 3 13 15 19 16 14 18 15 12 13
37 35 38 33 36 35 33 25 26 23 20 20 23 28 25 11 6 17 13 4 3 4 2 5 4 6 8 8 7 6 6 14 8 6 11 6 21 13 11 15 15 24 12 6 6 8 13
32 35 36 36 39 39 33 23 19 24 22 20 24 28 21 7 26 18 4 2 5 4 4 3 3 7 10 8 7 9 6 7 18 6 2 6 5 19 14 19 8 9 8 6 8 13 6
40 33 35 37 38 42 38 16 18 21 22 18 20 9 7 10 24 10 6 3 7 5 4 8 4 6 6 9 5 9 12 6 10 20 7 4 6 1 17 9 15 8 10 9 3 5 5
38 35 35 36 35 42 39 10 17 22 17 18 5 5 7 23 23 10 3 6 4 2 6 4 4 8 6 6 9 6 10 10 11 14 14 2 7 3 7 7 12 9 7 5 5 6 6
37 36 36 35 34 38 36 20 11 25 15 17 3 4 10 22 8 5 4 6 4 5 6 6 4 7 8 6 9 4 7 9 12 10 18 7 4 2 1 8 9 6 4 10 6 4 5
32 36 35 36 35 37 32 31 18 20 13 15 4 4 11 13 5 2 4 6 3 5 3 7 6 7 6 10 7 10 10 6 10 8 15 9 4 6 9 6 5 15 9 7 2 1 3
35 35 33 34 34 37 25 27 27 18 18 4 6 3 9 9 7 4 4 8 6 6 9 8 8 10 14 6 6 12 8 14 7 12 15 9 5 6 4 4 6 5 13 5 3 1 2
35 33 32 34 33 37 25 27 23 24 31 4 3 4 4 3 1 8 6 7 10 10 15 10 6 13 8 9 11 4 12 9 15 11 11 11 5 5 4 4 4 6 6 2 1 2 1
33 34 32 33 32 36 27 27 27 25 20 3 2 3 4 6 7 5 11 6 10 8 8 10 5 12 9 7 9 10 9 11 7 12 5 6 4 3 16 17 17 7 7 4 3 2 4
31 32 32 33 33 34 33 25 25 27 3 2 4 3 3 6 10 12 9 5 11 14 8 6 9 14 16 7 8 8 10 5 5 5 5 4 5 14 7 4 3 4 6 4 2 1 2
31 31 31 32 32 34 35 26 24 22 20 2 1 2 2 6 8 7 6 8 15 12 10 13 14 14 16 21 21 11 6 8 8 10 6 7 3 4 4 6 6 1 7 5 4 2 4
28 31 29 31 31 32 35 27 25 22 15 2 3 3 2 3 4 5 4 9 12 20 6 5 12 15 7 3 2 12 4 8 4 6 8 5 1 3 3 4 1 5 1 8 10 4 6
26 29 29 28 29 31 32 25 22 22 20 5 2 3 3 2 4 5 5 11 5 3 4 8 9 12 3 5 3 4 4 3 5 4 3 5 4 3 1 2 5 3 3 4 7 8 7
28 26 29 27 27 29 31 25 24 22 22 1 1 3 2 3 4 5 4 3 1 3 2 2 1 2 3 2 3 4 3 5 5 3 2 3 2 3 1 1 3 2 3 3 1 3 4
28 26 27 26 26 29 30 24 22 21 21 7 1 3 3 2 2 3 2 3 2 1 1 2 4 2 1 2 2 3 2 4 5 7 4 3 2 7 4 2 7 5 4 4 4 4 5
27 26 27 25 26 28 28 23 23 21 22 6 2 2 3 2 3 4 3 3 2 1 2 2 3 1 2 3 2 4 3 4 2 5 6 6 5 4 3 2 6 4 2 3 3 2 3
28 26 26 24 26 28 27 23 22 21 22 4 2 1 2 2 2 1 4 3 4 4 2 1 1 1 2 2 3 2 3 3 6 5 4 4 6 5 7 6 3 1 2 1 2 3 3
Wind_Direction
302 304 301 304 305 288 285 279 252 249 252 247 256 254 261 264 278 278 292 297 303 322 339 324 222 211 250 233 248 200 88 91 96 128 196 208 246 231 225 242 312 268 263 266 258 244 258
296 290 290 294 295 297 282 274 270 246 250 233 244 244 246 250 262 270 277 282 284 299 322 348 220 167 268 245 238 215 182 143 158 172 204 193 221 222 281 252 236 293 291 270 260 261 258
330 302 285 279 285 287 285 269 263 249 237 233 234 235 233 222 244 264 271 284 273 276 278 261 218 214 253 232 274 332 271 197 190 217 241 191 239 231 359 296 285 277 269 266 250 250 248
337 327 323 284 276 279 281 272 253 248 237 232 228 229 229 222 223 244 252 269 274 264 252 249 233 241 255 260 254 264 279 298 235 222 239 292 6 291 228 302 320 305 283 249 254 241 240
323 333 332 333 299 274 270 272 253 239 237 234 225 220 221 224 219 216 211 290 280 239 232 222 221 181 263 265 226 252 206 236 254 260 248 252 273 222 331 178 292 253 271 270 275 256 259
335 319 323 327 319 293 269 266 258 244 235 237 221 214 211 214 205 173 151 272 304 229 222 223 252 261 260 240 209 210 206 217 214 226 220 193 194 199 123 172 225 222 248 247 258 244 246
332 324 328 319 321 306 282 264 255 245 236 233 222 213 203 199 189 157 125 96 93 218 237 206 195 220 262 198 330 177 182 186 221 223 220 203 200 207 214 223 255 282 278 274 258 259 223
333 327 327 318 316 313 314 262 256 246 238 228 223 207 198 191 179 165 130 179 194 118 274 232 254 236 252 271 302 205 171 174 194 213 224 237 237 218 224 232 245 249 257 262 284 280 271
334 327 326 324 317 317 312 322 247 244 239 222 221 198 191 184 171 150 178 184 133 96 257 229 231 238 238 227 235 233 180 191 190 205 208 224 208 206 216 227 240 241 245 250 258 282 298
332 330 325 323 319 315 313 311 263 244 243 221 220 188 185 161 137 153 199 199 140 106 272 221 223 254 218 205 263 215 219 188 211 208 215 242 230 229 211 225 220 246 235 248 261 263 249
333 330 325 324 317 317 309 300 313 240 248 229 210 184 169 157 142 169 147 126 125 122 308 159 163 125 187 178 110 213 209 210 212 194 186 211 201 210 222 226 196 238 231 246 243 252 260
330 331 326 323 320 317 307 302 312 242 249 230 211 177 165 177 71 127 134 127 124 118 249 162 119 181 168 213 234 359 133 204 221 237 244 229 187 200 235 239 227 246 249 263 245 239 251
329 330 330 323 326 324 308 294 310 306 259 235 198 173 165 166 174 149 139 124 122 204 176 171 179 183 209 211 225 235 244 191 205 205 232 246 240 232 218 236 240 246 189 194 212 232 249
328 331 331 329 330 327 315 282 289 296 283 243 192 166 177 161 142 153 127 101 181 221 222 115 149 191 203 193 219 201 236 211 213 207 354 217 291 210 189 216 206 181 174 169 229 173 196
328 330 334 330 331 331 325 277 281 287 279 238 185 172 162 149 151 153 138 191 201 201 123 151 147 226 220 220 222 203 207 226 217 210 215 247 225 91 176 176 185 175 204 229 263 248 137
331 329 331 333 327 333 329 273 282 281 247 210 193 149 165 154 153 152 165 210 222 143 119 125 196 186 234 192 195 200 182 215 225 202 202 175 284 137 213 179 206 222 132 136 194 248 102
331 331 330 333 337 333 335 321 287 295 235 177 113 152 149 147 143 168 202 187 205 161 138 181 236 235 227 202 200 206 209 254 206 204 191 180 226 259 300 209 202 211 201 228 205 213 140
332 332 332 332 341 333 336 332 309 309 273 161 134 136 151 146 152 190 172 186 191 203 175 203 236 246 234 196 211 207 219 234 181 148 177 186 240 264 227 213 275 206 236 223 200 26 89
332 332 332 332 342 333 339 340 333 324 306 123 146 108 163 174 189 176 164 221 236 207 205 199 223 220 206 219 212 207 226 240 155 156 166 160 230 260 235 187 161 213 242 252 298 198 41
329 330 333 332 342 332 338 339 329 315 312 144 146 142 150 214 57 181 187 222 227 211 227 201 231 221 213 210 217 264 219 241 161 172 157 156 239 225 292 310 153 222 209 216 199 81 200
328 330 333 331 339 334 340 342 330 326 308 117 161 176 148 173 201 182 178 215 212 228 208 215 241 211 195 200 203 228 244 232 177 163 123 136 299 266 265 243 254 216 230 240 136 201 88
325 327 333 331 331 337 339 341 328 334 288 82 130 148 162 169 193 196 208 195 244 247 197 209 224 203 210 211 205 187 225 178 158 147 137 170 269 317 360 358 161 195 198 193 14 350 241
325 328 329 331 331 337 337 340 335 339 326 154 115 47 167 148 162 179 208 217 242 250 232 205 218 229 210 222 229 259 209 165 176 176 156 168 203 325 324 197 176 256 231 189 216 208 176
324 323 327 330 329 335 336 341 335 327 324 0 174 121 115 158 180 197 247 244 254 243 242 252 212 206 244 157 290 284 203 170 161 179 153 169 93 253 285 358 83 250 155 190 197 218 213
325 321 323 327 327 330 332 335 332 327 301 242 205 130 166 168 204 213 261 264 251 192 272 272 184 205 237 127 144 65 2 103 9 28 229 180 148 334 19 297 287 304 4 139 165 252 206
327 322 319 324 327 325 329 338 338 323 335 306 204 102 91 111 205 139 273 242 276 313 227 258 238 161 177 180 106 134 180 158 163 206 298 194 146 152 5 138 218 265 305 310 62 282 348
327 322 319 323 325 325 330 337 332 317 311 303 158 122 104 134 244 163 234 281 189 150 316 293 150 149 161 98 100 145 227 162 165 159 146 150 146 209 229 290 292 256 296 305 117 243 306
322 321 319 325 325 326 327 337 328 317 316 287 102 189 145 153 241 158 205 214 179 115 237 204 126 313 85 116 125 197 156 200 116 153 170 164 150 178 191 143 269 197 350 149 213 334 52
321 320 317 324 323 323 323 333 325 318 314 195 110 126 86 106 304 231 258 213 169 187 289 188 359 177 165 148 235 160 129 156 159 191 190 195 180 178 187 206 221 109 127 193 153 108 85